Total_Precipitation_Accumulation
0.48 0.75 1.03 1.08 1.08 1.00 0.83 0.81 0.83 0.76 0.73 0.80 0.81 0.84 0.88 0.88 0.91 0.83 0.66 0.62 0.61 0.61 0.63 0.63 0.67 0.72 0.73 0.71 0.68 0.65 0.68 0.76 0.87 1.07 1.35 1.75 1.97 2.09 2.08 2.09 2.00 1.77 1.53 1.54
0.60 0.61 0.51 0.57 0.61 0.70 0.71 0.77 0.77 0.72 0.63 0.65 0.63 0.66 0.68 0.67 0.62 0.58 0.52 0.48 0.52 0.52 0.60 0.58 0.56 0.59 0.62 0.61 0.61 0.70 0.67 0.72 0.84 1.09 1.36 1.67 2.00 2.07 2.08 2.08 2.05 1.93 1.77 1.77
0.52 0.45 0.41 0.53 0.59 0.65 0.68 0.74 0.73 0.77 0.73 0.64 0.60 0.65 0.66 0.60 0.50 0.44 0.41 0.41 0.43 0.43 0.49 0.51 0.51 0.50 0.54 0.52 0.48 0.58 0.65 0.74 0.99 1.30 1.55 1.71 1.98 2.05 2.09 2.05 2.07 2.09 2.03 1.93
0.57 0.43 0.43 0.53 0.54 0.54 0.72 0.51 0.47 0.54 0.78 0.80 0.62 0.75 0.62 0.52 0.55 0.48 0.43 0.40 0.41 0.42 0.42 0.42 0.47 0.47 0.44 0.41 0.39 0.45 0.54 0.75 1.10 1.42 1.61 1.83 2.19 2.24 2.14 2.15 2.13 2.13 2.16 2.12
0.56 0.41 0.42 0.48 0.41 0.39 0.52 0.42 0.43 0.48 0.64 0.69 0.52 0.54 0.56 0.49 0.54 0.55 0.49 0.47 0.42 0.38 0.35 0.34 0.35 0.36 0.37 0.41 0.42 0.46 0.61 0.84 1.12 1.33 1.58 1.92 2.14 2.21 2.29 2.18 2.14 2.14 2.20 2.22
0.47 0.34 0.34 0.37 0.34 0.32 0.37 0.46 0.53 0.53 0.64 0.68 0.37 0.43 0.56 0.48 0.41 0.43 0.45 0.44 0.38 0.34 0.33 0.34 0.36 0.37 0.39 0.42 0.47 0.58 0.74 0.90 1.14 1.33 1.57 1.75 1.96 2.06 2.16 2.21 2.12 2.10 2.16 2.26
0.44 0.34 0.27 0.25 0.35 0.35 0.38 0.67 0.92 0.90 0.91 0.70 0.31 0.42 0.56 0.40 0.31 0.32 0.36 0.39 0.38 0.39 0.41 0.45 0.47 0.55 0.62 0.64 0.67 0.75 0.87 1.01 1.14 1.27 1.40 1.47 1.61 1.75 1.75 1.88 1.94 2.04 2.04 2.09
0.40 0.38 0.24 0.22 0.28 0.35 0.34 0.52 0.86 0.91 0.78 0.60 0.44 0.62 0.61 0.41 0.34 0.34 0.35 0.40 0.43 0.50 0.57 0.67 0.74 0.83 0.92 0.94 0.95 1.00 1.06 1.07 1.11 1.19 1.25 1.30 1.37 1.45 1.48 1.49 1.48 1.62 1.76 1.79
0.38 0.35 0.19 0.19 0.23 0.28 0.33 0.39 0.46 0.60 0.51 0.53 0.53 0.65 0.59 0.43 0.41 0.42 0.43 0.48 0.56 0.74 0.83 0.93 1.04 1.05 1.05 1.06 1.04 1.06 1.09 1.07 1.08 1.12 1.12 1.06 1.06 1.14 1.24 1.24 1.29 1.30 1.36 1.36
0.36 0.39 0.23 0.19 0.26 0.25 0.29 0.40 0.54 0.81 0.92 0.80 0.66 0.76 0.76 0.59 0.49 0.46 0.54 0.65 0.81 1.06 1.18 1.30 1.39 1.32 1.24 1.26 1.32 1.22 1.14 1.07 1.03 1.03 1.06 0.98 0.95 1.02 1.07 1.03 1.07 1.04 1.05 1.05
0.30 0.44 0.34 0.24 0.24 0.27 0.32 0.44 0.60 0.88 0.97 1.12 1.16 1.20 0.92 0.74 0.67 0.76 0.89 1.01 1.19 1.44 1.59 1.68 1.69 1.60 1.41 1.29 1.29 1.24 1.15 1.04 0.92 0.90 0.99 0.99 0.91 0.94 0.98 0.95 0.89 0.84 0.87 0.92
0.27 0.44 0.42 0.26 0.21 0.25 0.41 0.59 0.79 1.24 1.22 1.09 1.28 1.42 1.02 0.82 0.81 0.84 0.93 1.10 1.31 1.42 1.50 1.53 1.49 1.49 1.37 1.27 1.18 1.16 1.07 0.92 0.86 0.90 0.93 0.95 0.85 0.83 0.87 0.86 0.89 0.78 0.73 0.74
0.37 0.52 0.63 0.54 0.48 0.47 0.55 0.61 0.71 0.88 1.10 1.18 1.38 1.54 1.07 0.81 0.80 0.85 0.97 1.07 1.12 1.11 1.20 1.29 1.34 1.23 1.18 1.11 1.05 1.16 1.18 1.06 1.01 1.02 1.09 1.01 0.86 0.85 0.88 0.83 0.88 0.80 0.72 0.72
0.42 0.49 0.59 0.71 0.69 0.67 0.69 0.61 0.57 0.74 1.01 1.06 1.13 1.20 0.95 0.77 0.76 0.78 0.87 0.92 0.99 1.00 1.05 1.07 1.13 1.08 1.09 1.04 1.00 1.12 1.17 1.16 1.20 1.26 1.23 1.08 0.96 0.88 0.84 0.82 0.84 0.80 0.77 0.78
0.37 0.35 0.31 0.31 0.30 0.38 0.58 0.68 0.60 0.64 0.75 1.01 0.90 0.77 0.73 0.67 0.69 0.73 0.78 0.82 0.83 0.87 0.88 0.81 0.78 0.80 0.86 0.85 0.80 0.86 0.96 1.04 1.15 1.20 1.12 1.03 0.93 0.81 0.75 0.78 0.75 0.78 0.83 0.82
0.28 0.26 0.20 0.16 0.15 0.25 0.50 0.59 0.59 0.58 0.58 0.61 0.55 0.54 0.44 0.42 0.49 0.53 0.60 0.58 0.60 0.64 0.64 0.61 0.56 0.55 0.59 0.52 0.55 0.59 0.70 0.86 1.04 1.11 0.99 0.87 0.80 0.79 0.72 0.68 0.65 0.65 0.68 0.70
0.26 0.29 0.32 0.23 0.18 0.27 0.51 0.51 0.54 0.41 0.29 0.28 0.35 0.36 0.28 0.29 0.39 0.44 0.52 0.52 0.47 0.50 0.53 0.55 0.53 0.47 0.50 0.46 0.47 0.56 0.63 0.76 0.86 0.88 0.81 0.71 0.66 0.64 0.58 0.55 0.56 0.59 0.61 0.62
0.21 0.32 0.45 0.36 0.35 0.57 0.68 0.53 0.46 0.39 0.24 0.17 0.20 0.21 0.21 0.25 0.32 0.35 0.40 0.46 0.42 0.39 0.43 0.49 0.51 0.49 0.50 0.54 0.56 0.65 0.71 0.71 0.74 0.78 0.76 0.68 0.61 0.56 0.52 0.48 0.50 0.60 0.62 0.59
0.23 0.34 0.49 0.47 0.49 0.54 0.52 0.36 0.35 0.44 0.42 0.20 0.16 0.16 0.17 0.20 0.25 0.25 0.27 0.31 0.31 0.27 0.25 0.27 0.32 0.34 0.39 0.43 0.48 0.49 0.50 0.52 0.54 0.57 0.62 0.56 0.47 0.50 0.54 0.51 0.55 0.59 0.59 0.62
0.36 0.38 0.54 0.54 0.56 0.60 0.43 0.21 0.18 0.33 0.57 0.26 0.13 0.11 0.09 0.12 0.19 0.16 0.15 0.16 0.16 0.16 0.16 0.15 0.15 0.17 0.20 0.25 0.36 0.41 0.39 0.34 0.33 0.36 0.41 0.41 0.38 0.41 0.49 0.58 0.64 0.60 0.56 0.61
0.32 0.38 0.50 0.63 0.74 0.79 0.53 0.27 0.22 0.46 0.57 0.25 0.11 0.08 0.08 0.08 0.09 0.09 0.11 0.12 0.10 0.12 0.14 0.15 0.14 0.14 0.18 0.22 0.25 0.29 0.35 0.32 0.29 0.30 0.32 0.32 0.32 0.35 0.44 0.50 0.48 0.48 0.50 0.53
0.45 0.55 0.67 0.80 1.00 1.11 0.69 0.47 0.45 0.42 0.26 0.16 0.10 0.07 0.08 0.09 0.08 0.08 0.09 0.10 0.09 0.09 0.11 0.12 0.13 0.15 0.20 0.20 0.18 0.21 0.24 0.25 0.27 0.26 0.28 0.27 0.25 0.25 0.28 0.35 0.39 0.42 0.43 0.45
0.45 0.70 0.88 0.86 0.88 0.76 0.55 0.46 0.36 0.27 0.20 0.11 0.10 0.09 0.08 0.08 0.08 0.08 0.08 0.08 0.08 0.08 0.09 0.11 0.15 0.19 0.21 0.19 0.17 0.18 0.20 0.24 0.28 0.27 0.26 0.25 0.24 0.24 0.26 0.30 0.34 0.37 0.41 0.43
0.26 0.32 0.39 0.40 0.40 0.37 0.31 0.26 0.22 0.18 0.16 0.11 0.10 0.10 0.11 0.11 0.11 0.10 0.09 0.09 0.10 0.09 0.09 0.12 0.16 0.18 0.19 0.18 0.20 0.21 0.21 0.21 0.23 0.23 0.23 0.23 0.24 0.25 0.25 0.28 0.33 0.39 0.39 0.36
0.21 0.21 0.23 0.23 0.20 0.20 0.20 0.18 0.18 0.17 0.14 0.11 0.10 0.10 0.14 0.14 0.11 0.10 0.10 0.13 0.14 0.12 0.11 0.12 0.14 0.17 0.17 0.19 0.21 0.23 0.22 0.20 0.20 0.20 0.19 0.20 0.21 0.24 0.24 0.22 0.23 0.30 0.33 0.31
0.17 0.22 0.23 0.18 0.12 0.14 0.17 0.15 0.14 0.15 0.13 0.12 0.12 0.13 0.13 0.10 0.10 0.11 0.11 0.15 0.17 0.13 0.12 0.13 0.13 0.15 0.16 0.18 0.22 0.24 0.27 0.25 0.22 0.21 0.20 0.21 0.21 0.22 0.22 0.22 0.22 0.25 0.25 0.27